GW5159 Weather Reports


Display with metric or nautical units.
time (UTC)temp
F
wind
direction
speed
MPH
gust
MPH
rain 1hr
in
rain 24hr
in
rain mn
in
humidity
%
barometer
mb
20260505082901 0 143 1.0 2.0 0.00 0.00 0.00 1004.2
20260505082357 0 143 0.0 1.0 0.00 0.00 0.00 1004.2
20260505081854 0 246 0.0 0.0 0.00 0.00 0.00 1004.3
20260505081350 0 258 0.0 0.0 0.00 0.00 0.00 1004.5
20260505080847 0 242 0.0 1.0 0.00 0.00 0.00 1004.5
20260505080343 0 321 1.0 2.0 0.00 0.00 0.00 1004.5
20260505075839 0 280 1.0 2.0 0.00 0.00 0.00 1004.7
20260505075336 0 201 1.0 2.0 0.00 0.00 0.00 1004.3
20260505074833 0 139 2.0 2.0 0.00 0.00 0.00 1004.4
20260505074330 0 193 1.0 3.0 0.00 0.00 0.00 1004.4
20260505073828 0 232 1.0 2.0 0.00 0.00 0.00 1004.5
20260505073326 0 164 0.0 0.0 0.00 0.00 0.00 1004.4
20260505072822 0 214 0.0 1.0 0.00 0.00 0.00 1004.4
20260505072318 0 43 1.0 1.0 0.00 0.00 0.00 1004.6
20260505071814 0 332 1.0 1.0 0.00 0.00 0.00 1004.7
20260505071311 0 270 0.0 1.0 0.00 0.00 0.00 1004.6
20260505070809 0 270 0.0 1.0 0.00 0.00 0.00 1004.7
20260505070305 0 310 0.0 1.0 0.00 0.00 0.00 1004.7
20260505065800 0 300 2.0 2.0 0.00 0.00 0.00 1004.7
20260505065258 0 105 0.0 2.0 0.00 0.00 0.00 1004.6
20260505064755 0 336 2.0 3.0 0.00 0.00 0.00 1004.6
20260505064252 0 321 2.0 3.0 0.00 0.00 0.00 1004.7
20260505063749 0 306 4.0 4.0 0.00 0.00 0.00 1004.6
20260505063246 0 278 2.0 3.0 0.00 0.00 0.00 1004.6
20260505062742 0 263 2.0 3.0 0.00 0.00 0.00 1004.5
20260505062240 0 340 3.0 3.0 0.00 0.00 0.00 1004.5
20260505061737 0 339 3.0 3.0 0.00 0.00 0.00 1004.4
20260505061235 0 294 3.0 3.0 0.00 0.00 0.00 1004.6
20260505060732 0 326 3.0 3.0 0.00 0.00 0.00 1004.6
20260505060229 0 18 1.0 3.0 0.00 0.00 0.00 1004.7
20260505055724 0 110 2.0 6.0 0.00 0.00 0.00 1004.5
20260505055220 0 73 2.0 4.0 0.00 0.00 0.00 1004.5
20260505054718 0 71 5.0 7.0 0.00 0.00 0.00 1004.2
20260505054216 0 108 2.0 6.0 0.00 0.00 0.00 1004.3
20260505053714 0 112 3.0 6.0 0.00 0.00 0.00 1004.2
20260505053210 0 105 2.0 6.0 0.00 0.00 0.00 1004.2
20260505052707 0 120 3.0 4.0 0.00 0.00 0.00 1004.5
20260505052204 0 98 2.0 4.0 0.00 0.00 0.00 1004.5
20260505051701 0 128 2.0 3.0 0.00 0.00 0.00 1004.4
20260505051159 0 109 2.0 2.0 0.00 0.00 0.00 1004.4
20260505050657 0 98 1.0 2.0 0.00 0.00 0.00 1004.5
20260505050155 0 97 2.0 3.0 0.00 0.00 0.00 1004.6
20260505041624 0 129 2.0 4.0 0.00 0.00 0.00 1004.5
20260505041122 0 108 3.0 6.0 0.00 0.00 0.00 1004.5
20260505040619 0 97 4.0 6.0 0.00 0.00 0.00 1004.5
20260505040116 0 113 3.0 4.0 0.00 0.00 0.00 1004.5
20260505035612 0 113 2.0 6.0 0.00 0.00 0.00 1004.4
20260505035109 0 129 4.0 6.0 0.00 0.00 0.00 1004.3
20260505034605 0 129 2.0 4.0 0.00 0.00 0.00 1004.2
20260505034102 0 116 4.0 4.0 0.00 0.00 0.00 1004.5
20260505033559 0 120 3.0 4.0 0.00 0.00 0.00 1004.3
20260505033058 0 137 2.0 4.0 0.00 0.00 0.00 1004.4
20260505032555 0 123 4.0 6.0 0.00 0.00 0.00 1004.6
20260505032051 0 122 3.0 7.0 0.00 0.00 0.00 1004.5
20260505031548 0 116 3.0 6.0 0.00 0.00 0.00 1004.5
20260505031045 0 114 5.0 6.0 0.00 0.00 0.00 1004.4
20260505030542 0 118 6.0 8.0 0.00 0.00 0.00 1004.4
20260505030038 0 123 5.0 8.0 0.00 0.00 0.00 1004.4
20260505025533 0 120 2.0 3.0 0.00 0.00 0.00 1004.3
20260505025033 0 116 8.0 11.0 0.00 0.00 0.00 1004.4
20260505024529 0 119 7.0 8.0 0.00 0.00 0.00 1004.5
20260505024026 0 105 4.0 6.0 0.00 0.00 0.00 1004.5
20260505023523 0 138 7.0 10.0 0.00 0.00 0.00 1004.4
20260505023021 0 87 4.0 7.0 0.00 0.00 0.00 1004.6
20260505022518 0 145 6.0 8.0 0.00 0.00 0.00 1004.6
20260505022015 0 131 6.0 7.0 0.00 0.00 0.00 1004.5
20260505021512 0 112 3.0 4.0 0.00 0.00 0.00 1004.6
20260505021009 0 123 3.0 6.0 0.00 0.00 0.00 1004.8
20260505020503 0 125 4.0 7.0 0.00 0.00 0.00 1004.7
20260505020000 0 130 3.0 7.0 0.00 0.00 0.00 1004.5
20260505015457 0 122 4.0 7.0 0.00 0.00 0.00 1004.4
20260505014954 0 129 4.0 9.0 0.00 0.00 0.00 1004.5
20260505014451 0 141 4.0 7.0 0.00 0.00 0.00 1004.5
20260505013948 0 121 7.0 8.0 0.00 0.00 0.00 1004.4
20260505013445 0 115 4.0 8.0 0.00 0.00 0.00 1004.4
20260505012943 0 131 6.0 9.0 0.00 0.00 0.00 1004.3
20260505012441 0 119 7.0 9.0 0.00 0.00 0.00 1004.4
20260505011937 0 140 4.0 10.0 0.00 0.00 0.00 1004.4
20260505011433 0 130 6.0 8.0 0.00 0.00 0.00 1004.4
20260505010930 0 114 5.0 8.0 0.00 0.00 0.00 1004.5
20260505010426 0 138 5.0 7.0 0.00 0.00 0.00 1004.2
20260505005922 0 139 8.0 8.0 0.00 0.00 0.00 1004.1
20260505005419 0 107 3.0 6.0 0.00 0.00 0.00 1004.2
20260505004917 0 112 5.0 6.0 0.00 0.00 0.00 1004.3
20260505004413 0 111 2.0 2.0 0.00 0.00 0.00 1004.3
20260505003910 0 136 0.0 0.0 0.00 0.00 0.00 1004.0
20260505003407 0 214 0.0 0.0 0.00 0.00 0.00 1004.1
20260505002903 0 226 0.0 0.0 0.00 0.00 0.00 1004.1
20260505002400 0 226 0.0 0.0 0.00 0.00 0.00 1003.9
20260505001858 0 227 0.0 0.0 0.00 0.00 0.00 1003.9
20260505001355 0 245 0.0 0.0 0.00 0.00 0.00 1003.7
20260505000853 0 215 0.0 0.0 0.00 0.00 0.00 1003.7
20260505000351 0 215 0.0 0.0 0.00 0.00 0.00 1003.9
20260504235847 0 96 1.0 1.0 0.00 0.00 0.00 1003.7
20260504235344 0 184 0.0 0.0 0.00 0.00 0.00 1003.9
20260504234840 0 146 2.0 2.0 0.00 0.00 0.00 1003.8
20260504234338 0 161 3.0 4.0 0.00 0.00 0.00 1003.7
20260504233834 0 155 2.0 3.0 0.00 0.00 0.00 1003.5
20260504233330 0 167 2.0 3.0 0.00 0.00 0.00 1003.6
20260504232827 0 118 2.0 4.0 0.00 0.00 0.00 1003.5
20260504232324 0 126 4.0 7.0 0.00 0.00 0.00 1003.4
20260504231821 0 119 4.0 4.0 0.00 0.00 0.00 1003.4
20260504231317 0 130 4.0 6.0 0.00 0.00 0.00 1003.5
20260504230813 0 127 3.0 6.0 0.00 0.00 0.00 1003.4
20260504230312 0 131 4.0 4.0 0.00 0.00 0.00 1003.4
20260504225810 0 127 8.0 9.0 0.00 0.00 0.00 1003.5
20260504225306 0 176 4.0 7.0 0.00 0.00 0.00 1003.6
20260504224803 0 114 4.0 6.0 0.00 0.00 0.00 1003.6
20260504224300 0 158 6.0 9.0 0.00 0.00 0.00 1003.6
20260504223757 0 174 2.0 3.0 0.00 0.00 0.00 1003.6
20260504223252 0 127 1.0 2.0 0.00 0.00 0.00 1003.7
20260504222749 0 179 1.0 3.0 0.00 0.00 0.00 1003.8
20260504222246 0 167 2.0 3.0 0.00 0.00 0.00 1003.7
20260504221744 0 146 2.0 3.0 0.00 0.00 0.00 1003.7
20260504221241 0 227 5.0 6.0 0.00 0.00 0.00 1003.6
20260504220738 0 199 1.0 8.0 0.00 0.00 0.00 1003.6
20260504220235 0 113 10.0 11.0 0.00 0.00 0.00 1003.9
20260504215732 0 212 4.0 10.0 0.00 0.00 0.00 1003.7
20260504215228 0 131 7.0 10.0 0.00 0.00 0.00 1003.6
20260504214724 0 188 4.0 6.0 0.00 0.00 0.00 1003.8
20260504214221 0 176 5.0 8.0 0.00 0.00 0.00 1003.8
20260504213718 0 114 1.0 3.0 0.00 0.00 0.00 1004.0
20260504213214 0 253 3.0 9.0 0.00 0.00 0.00 1003.7
20260504212711 0 333 6.0 8.0 0.00 0.00 0.00 1003.9
20260504212208 0 195 4.0 6.0 0.00 0.00 0.00 1003.6
20260504211705 0 127 6.0 9.0 0.00 0.00 0.00 1003.9
20260504211201 0 143 6.0 10.0 0.00 0.00 0.00 1004.0
20260504210659 0 95 2.0 7.0 0.00 0.00 0.00 1003.9
20260504210155 0 12 2.0 4.0 0.00 0.00 0.00 1004.1
20260504205653 0 243 6.0 10.0 0.00 0.00 0.00 1004.2
20260504205150 0 272 4.0 13.0 0.00 0.00 0.00 1003.8
20260504204649 0 223 3.0 10.0 0.00 0.00 0.00 1004.1
20260504204147 0 308 9.0 13.0 0.00 0.00 0.00 1004.1
20260504203645 0 214 4.0 19.0 0.00 0.00 0.00 1004.3
20260504203143 0 328 6.0 13.0 0.00 0.00 0.00 1004.2
20260504202642 0 191 9.0 15.0 0.00 0.00 0.00 1004.3
20260504202140 0 230 5.0 7.0 0.00 0.00 0.00 1004.3
20260504201636 0 202 3.0 7.0 0.00 0.00 0.00 1004.1
20260504201134 0 232 3.0 7.0 0.00 0.00 0.00 1004.2
20260504200631 0 209 7.0 11.0 0.00 0.00 0.00 1004.3
20260504200128 0 305 9.0 13.0 0.00 0.00 0.00 1004.4
20260504195624 0 193 5.0 8.0 0.00 0.00 0.00 1004.8
20260504195120 0 139 11.0 15.0 0.00 0.00 0.00 1004.4
20260504194617 0 131 10.0 13.0 0.00 0.00 0.00 1004.7
20260504194113 0 275 10.0 16.0 0.00 0.00 0.00 1004.5
20260504193609 0 244 4.0 8.0 0.00 0.00 0.00 1004.8
20260504193108 0 280 6.0 10.0 0.00 0.00 0.00 1004.8
20260504192606 0 202 10.0 13.0 0.00 0.00 0.00 1004.9
20260504192104 0 288 8.0 10.0 0.00 0.00 0.00 1004.9
20260504191602 0 128 10.0 13.0 0.00 0.00 0.00 1005.1
20260504191057 0 273 10.0 18.0 0.00 0.00 0.00 1005.0
20260504190554 0 253 13.0 15.0 0.00 0.00 0.00 1005.1
20260504190050 0 163 10.0 14.0 0.00 0.00 0.00 1005.1
20260504185547 0 138 7.0 14.0 0.00 0.00 0.00 1005.2
20260504185043 0 251 9.0 11.0 0.00 0.00 0.00 1005.3
20260504184539 0 166 7.0 11.0 0.00 0.00 0.00 1005.5
20260504184034 0 215 6.0 10.0 0.00 0.00 0.00 1005.5
20260504183532 0 205 7.0 9.0 0.00 0.00 0.00 1005.5
20260504183030 0 242 2.0 13.0 0.00 0.00 0.00 1005.5
20260504182526 0 264 5.0 13.0 0.00 0.00 0.00 1005.4
20260504182024 0 173 6.0 10.0 0.00 0.00 0.00 1005.6
20260504181521 0 160 8.0 11.0 0.00 0.00 0.00 1005.6
20260504181019 0 272 5.0 13.0 0.00 0.00 0.00 1005.5
20260504180518 0 215 5.0 9.0 0.00 0.00 0.00 1005.4
20260504180016 0 185 4.0 7.0 0.00 0.00 0.00 1005.7
20260504175513 0 286 8.0 18.0 0.00 0.00 0.00 1005.4
20260504175010 0 216 5.0 14.0 0.00 0.00 0.00 1005.9
20260504174508 0 191 9.0 16.0 0.00 0.00 0.00 1006.0
20260504174005 0 222 2.0 11.0 0.00 0.00 0.00 1005.9
20260504173501 0 232 3.0 21.0 0.00 0.00 0.00 1006.0
20260504172959 0 311 10.0 16.0 0.00 0.00 0.00 1005.9
20260504172454 0 277 7.0 16.0 0.00 0.00 0.00 1005.9
20260504171951 0 119 5.0 6.0 0.00 0.00 0.00 1006.0
20260504171448 0 265 10.0 13.0 0.00 0.00 0.00 1005.9
20260504170945 0 319 10.0 13.0 0.00 0.00 0.00 1005.7
20260504170441 0 262 4.0 8.0 0.00 0.00 0.00 1005.9
20260504160401 0 242 7.0 14.0 0.00 0.00 0.00 1006.5
20260504150825 0 231 6.0 10.0 0.00 0.00 0.00 1007.2
20260504150322 0 248 7.0 14.0 0.00 0.00 0.00 1007.0
20260504141252 0 133 9.0 16.0 0.00 0.00 0.00 1007.4
20260504140748 0 183 10.0 14.0 0.00 0.00 0.00 1007.4
20260504140244 0 166 10.0 13.0 0.00 0.00 0.00 1007.4
20260504130713 0 133 8.0 11.0 0.00 0.00 0.00 1008.0
20260504130209 0 147 14.0 17.0 0.00 0.00 0.00 1007.9
20260504120133 0 159 7.0 9.0 0.00 0.00 0.00 1008.3
20260504110600 0 110 3.0 4.0 0.00 0.00 0.00 1008.2
20260504100522 0 320 1.0 1.0 0.00 0.00 0.00 1008.2